Location: Boissi�res
(45.2500°N, 2.3667°E)
Time: 20:54:14
(UTC+00:00)

Cosmos 1354 Rocket - Pass Details

Date: 03 March 2021
Orbit: 765 x 782 km, 74.0° (Epoch: 17 April)

Event Time Altitude Azimuth Distance (km) Brightness Sun altitude
Rises 18:18:54 0° 344° (NNW) 3,251 7.4 -7.5°
Reaches altitude 10° 18:21:27 10° 352° (N) 2,318 6.6 -8.0°
Maximum altitude 18:26:23 40° 61° (ENE) 1,126 4.5 -8.8°
Drops below altitude 10° 18:31:16 10° 131° (SE) 2,298 6.0 -9.7°
Enters shadow 18:33:31 - 138° (SE) 3,127 6.8 -10.1°
